Home > Weather > Dinslaken > Past weeks

Flag for Germany Weather for the Past 2 Weeks in Dinslaken, North Rhine-Westphalia, Germany

Now
37 °F

Fog.


Feels Like: 37 °F
Forecast: 43 / 57 °F
Wind: 1 mph from North

Location: Duesseldorf

Current Time: May 2, 2016 at 5:48:11 AM

Latest Report: May 2, 2016 at 4:50 AM


Visibility: N/A

Pressure: 30.30 "Hg

Humidity: 100%

Dew Point: 37 °F

Location of DinslakenLocation

Historic Weather in Dinslaken — Graph

°F

Dinslaken Temperature Yesterday

Maximum temperature yesterday: 59 °F (at 3:50 PM)
Minimum temperature yesterday: 43 °F (at 1:50 AM)
Average temperature yesterday: 49 °F

High & Low Weather Summary for the Past Weeks

 TemperatureHumidityPressure
High68 °F (Apr 21, 3:50 PM)100% (Apr 18, 12:20 AM)30.48 "Hg (Apr 18, 12:20 AM)
Low32 °F (Apr 18, 5:20 AM)34% (Apr 20, 4:50 PM)29.50 "Hg (Apr 26, 8:20 AM)
Average46 °F73%30.02 "Hg
* Reported Apr 17 4:20 AM — May 2 4:20 AM, Dinslaken, Weather by CustomWeather, © 2016

Note: Actual official high and low records may vary slightly from our data, if they occured in-between our weather recording intervals... More about our weather records

Advertising

Dinslaken Weather History for the Previous 24 Hours

Scroll right to see more
 ConditionsComfort  
Time TempWeatherWind HumidityBarometerVisibility
4:20 AM
Mon, May 2
39 °FClear.1 mph93%30.30 "Hg10 mi
3:50 AM39 °FClear.2 mph100%30.30 "Hg10 mi
3:20 AM37 °FFog.2 mph100%30.30 "HgN/A
2:50 AM39 °FFog.2 mph93%30.30 "HgN/A
2:20 AM39 °FFog.1 mph100%30.30 "HgN/A
1:50 AM39 °FFog.1 mph100%30.30 "HgN/A
1:20 AM41 °FFog.1 mph93%30.33 "HgN/A
12:50 AM41 °FClear.1 mph93%30.33 "Hg10 mi
12:20 AM43 °FClear.2 mph93%30.33 "Hg10 mi
11:50 PM
Sun, May 1
43 °FClear.3 mph93%30.33 "Hg10 mi
11:20 PM45 °FClear.5 mph87%30.33 "Hg10 mi
10:50 PM45 °FClear.3 mph87%30.33 "Hg10 mi
10:20 PM48 °FClear.3 mph76%30.33 "Hg10 mi
9:50 PM50 °FSunny.7 mph76%30.33 "Hg10 mi
9:20 PM50 °FSunny.7 mph76%30.30 "Hg10 mi
8:50 PM52 °FSunny.8 mph72%30.30 "Hg10 mi
8:20 PM54 °FSunny.8 mph72%30.30 "Hg10 mi
7:50 PM55 °FPassing clouds.10 mph63%30.30 "HgN/A
7:20 PM55 °FPassing clouds.13 mph67%30.30 "HgN/A
6:50 PM57 °FPassing clouds.15 mph63%30.30 "HgN/A
6:20 PM57 °FPassing clouds.13 mph63%30.27 "HgN/A
5:50 PM59 °FPassing clouds.8 mph55%30.27 "HgN/A
5:20 PM59 °FPassing clouds.10 mph51%30.27 "HgN/A
4:50 PM59 °FPassing clouds.10 mph51%30.27 "HgN/A
4:20 PM59 °FPassing clouds.13 mph55%30.27 "HgN/A
3:50 PM59 °FPassing clouds.14 mph55%30.27 "HgN/A
3:20 PM57 °FPassing clouds.14 mph55%30.27 "HgN/A
2:50 PM57 °FPassing clouds.13 mph55%30.27 "HgN/A
2:20 PM57 °FPassing clouds.14 mph55%30.27 "HgN/A
1:50 PM55 °FPassing clouds.15 mph59%30.27 "HgN/A
1:20 PM54 °FPassing clouds.14 mph58%30.27 "HgN/A
12:50 PM52 °FPassing clouds.14 mph67%30.30 "HgN/A
12:20 PM52 °FPassing clouds.13 mph62%30.30 "HgN/A
11:50 AM48 °FScattered clouds.10 mph71%30.30 "HgN/A
11:20 AM50 °FBroken clouds.14 mph71%30.30 "HgN/A
10:50 AM46 °FPartly sunny.9 mph76%30.30 "HgN/A
10:20 AM46 °FBroken clouds.10 mph76%30.30 "HgN/A
9:50 AM45 °FBroken clouds.10 mph81%30.27 "HgN/A
8:50 AM43 °FBroken clouds.9 mph93%30.27 "HgN/A
8:20 AM43 °FLight rain. Broken clouds.12 mph93%30.27 "HgN/A
7:50 AM43 °FLight rain. Broken clouds.10 mph93%30.27 "HgN/A
7:20 AM43 °FLight rain. More clouds than sun.13 mph87%30.24 "HgN/A
6:20 AM43 °FLight rain. Passing clouds.9 mph87%30.24 "HgN/A
5:50 AM43 °FPassing clouds.9 mph87%30.24 "HgN/A
5:20 AM43 °FPassing clouds.9 mph87%30.24 "HgN/A
Weather by CustomWeather, © 2016

See weather overviewHow to use our weather pages